Flag for Canada Weather past 2 weeks in Halifax, Nova Scotia, Canada

Now
12 °F

Clear.


Feels Like: -3 °F
Forecast: 16 / 28 °F
Wind: 14 mph from North

Location: Halifax International Airport

Current Time: Jan 29, 2015 at 6:50:00 AM

Latest Report: Jan 29, 2015 at 6:00 AM


Visibility: 15 mi

Pressure: 30.10 "Hg

Humidity: 92%

Dew point: 10 °F

Location of HalifaxLocation

Historic Weather in Halifax — Graph

°F

Halifax temperature yesterday

Maximum temperature yesterday: 32 °F (at 11:45 AM)
Minimum temperature yesterday: 18 °F (at 10:00 PM)
Average temperature yesterday: 26 °F

Past Weeks' High & Low Weather Summary

 TemperatureHumidityPressure
High50 °F (Jan 24, 11:00 PM)100% (Jan 15, 10:00 PM)30.57 "Hg (Jan 15, 10:00 PM)
Low1 °F (Jan 14, 5:00 AM)41% (Jan 26, 4:00 PM)28.55 "Hg (Jan 25, 3:00 AM)
Average23 °F82%29.84 "Hg
* Reported Jan 14 5:00 AM — Jan 29 5:00 AM, Halifax, Weather by CustomWeather, © 2014

Note: Actual official high and low records may vary slightly from our data, if they occured in-between our weather recording intervals... More about our weather records

Advertising

Halifax weather history for previous 24 hours

 ConditionsComfort  
Time TempWeatherWind HumidityBarometerVisibility
5:00 AM
Jan 29
12 °FClear.13 mph92%30.11 "Hg15 mi
4:00 AM12 °FClear.14 mph92%30.06 "Hg15 mi
3:00 AM14 °FClear.10 mph85%30.06 "Hg15 mi
2:00 AM14 °FClear.8 mph85%30.01 "Hg15 mi
1:00 AM14 °FClear.13 mph92%29.97 "Hg15 mi
12:00 AM16 °FClear.13 mph86%29.94 "Hg15 mi
11:00 PM
Jan 28
18 °FPassing clouds.15 mph86%29.90 "Hg15 mi
10:00 PM18 °FLight snow. Partly cloudy.18 mph93%29.86 "Hg15 mi
9:00 PM19 °FLight snow. Partly cloudy.22 mph86%29.83 "Hg5 mi
8:00 PM21 °FLight snow. Low clouds.21 mph93%29.77 "Hg2 mi
7:00 PM23 °FLight snow. Low clouds.21 mph93%29.70 "Hg1 mi
6:00 PM25 °FLight snow. Ice fog.20 mph93%29.65 "Hg1 mi
5:00 PM28 °FLight snow. Ice fog.16 mph93%29.59 "Hg1 mi
4:00 PM30 °FLight snow. Ice fog.7 mph100%29.58 "Hg1 mi
3:00 PM32 °FDrizzle. Fog.7 mph100%29.56 "Hg1 mi
2:00 PM32 °FLight freezing rain. Ice fog.6 mph100%29.55 "Hg1 mi
1:48 PM32 °FLight freezing rain. Ice fog.7 mph93%29.56 "Hg1 mi
1:00 PM32 °FIce fog.7 mph100%29.55 "Hg0 mi
12:51 PM32 °FIce fog.7 mph93%29.55 "Hg0 mi
12:00 PM32 °FLight snow. Ice fog.5 mph100%29.56 "Hg1 mi
11:45 AM32 °FLight snow. Ice fog.2 mph93%29.57 "Hg1 mi
11:00 AM30 °FLight snow. Ice fog.5 mph100%29.57 "Hg2 mi
10:00 AM27 °FLight snow. Ice fog.5 mph100%29.57 "Hg2 mi
9:00 AM27 °FLight snow. Ice fog.3 mph93%29.56 "Hg2 mi
8:00 AM25 °FLight snow. Ice fog.5 mph100%29.54 "Hg1 mi
7:00 AM25 °FSnow flurries. Ice fog.6 mph100%29.52 "Hg2 mi
6:00 AM25 °FLight freezing rain. Ice fog.9 mph100%29.49 "Hg4 mi
Weather by CustomWeather, © 2014

See weather overviewHow to use our weather pages